Погода в Пудоже

Погода в Пудоже : погода сейчас, прогноз погоды и архив. Всё, что Вы хотите узнать о погоде в Пудоже!

Хотите узнать прогноз погоды в Пудоже? Тогда Вам сюда: Погода в Пудоже

Поиск расширенной информации на нашем сайте:

Другие новости

Новости СМИ2

Главная страница сайта

Новости сайта

03.07.2017

Напоминаем, что на нашем специализированном сайте Метеоцентр.Азия вы можете получить высокодетализированные автоматические прогнозы погоды по пунктам России, СНГ и мира в авиационном формате (включающие направление и скорость ветра, видимость, явления погоды, количество и форму облачности, нижнюю и верхнюю границу облачности).

Рекомендуем: выгодно снять: продажа офиса БЦ Новоспасский Двор у метро Пролетарская на сайте бизнес центра

Погода в Пудоже - сегодня

Время (UTC), дата Ветер
(°,м/с) 
Видим.   Явления Облачность Т
(°С)
Тd
(°С)
f(%) Тe
(°С)
Pmin
(гПа)
dP
(гПа)
Po
(мм)
O2
(г/м3)
Тmin Tmax R s Состояние
почвы
18 15.09.17 200 (Ю) 4000 м  слаб. ливневой дождь  9/6 300 м кучево-дожд., средняя 
[Cb cap|Ac trans]
+11 +10.1 94 +14  990.6  -0.8  739  284    +15.1  0.7     
21 15.09.17 180 (Ю) 4000 м  слаб. ливневой дождь  10/10 240 м кучево-дожд. 
[Cb cap]
+10.9 +10.5 97 +14  989.9  -0.7  738  284           
03 16.09.17 270 (З) 3{11}  10 км  слаб. ливневой дождь  9/4 600 м кучево-дожд., средняя 
[Cb cap|Ac trans]
+7.2 +6.2 93 +6  996.6  4.8  743  291  +7.2       
03 17.09.17 260 (З) 20000 м    8/0 средняя 
[Ac trans]
+7.8 +7.3 97 +9  1012.6  1.8  755  295  +7.8    0.3     
09 17.09.17 270 (З) 20000 м    9/9 500 м кучево-дожд. 
[Cb cap]
+10.3 +7.9 85 +11  1016.2  1.4  758  293           
21 17.09.17 тихо ()   2000 м  дымка  3/0 средняя 
[Ac trans]
+3.8 +3.5 98 +4  1017  -0.5  758  301           
03 18.09.17 тихо ()   2000 м  дымка  10/10 210 м 
[St]
+5.4 +5.2 99 +5  1014.8  -1.4  757  298  +2.6         
09 18.09.17 080 (В) 20000 м    9/9 300 м кучево-дожд. 
[Cb cap]
+10.3 +8.4 88 +11  1012.2  -1.5  755  292           
12 18.09.17 080 (В) 20000 м    9/4 600 м кучево-дожд., средняя 
[Cb cap|Ac trans]
+12.8 +8 73 +13  1009.7  -2.5  753  288           
15 18.09.17 070 (В) 20000 м    8/0 средняя, верхняя 
[Ac trans|Ci fib]
+10.8 +7.9 82 +12  1007.3  -2.4  751  290           
18 18.09.17 070 (В) 10 км    9/9 800 м кучево-дожд. 
[Cb cap]
+9.9 +7.9 87 +9  1005  -2.3  749  290    +12.9       
21 18.09.17 080 (В) 3{10}  4000 м  слаб. ливневой дождь  10/10 360 м кучево-дожд. 
[Cb cap]
+9.4 +8.7 95 +9  1000.6  -4.4  746  289           
00 19.09.17 090 (В) 4000 м  слаб. ливневой дождь  10/10 400 м кучево-дожд. 
[Cb cap]
+9.3 +8.8 97 +9  997.9  -2.7  744  288           
03 19.09.17 070 (В) 20000 м  {ливн. осадки}  10/10 270 м кучево-дожд. 
[Cb cap]
+9.3 +8.9 97 +9  996.6  -1.3  743  288  +9.3    10     
06 19.09.17 070 (В) 20000 м  в посл. час ливневой дождь  10/10 210 м кучево-дожд. 
[Cb cap]
+9.6 +9.2 97 +10  996.6  743  288  +9.3    10    влажная 
09 19.09.17 070 (В) 20000 м    10/10 270 м кучево-дожд. 
[Cb cap]
+10.9 +10 94 +12  997.9  1.4  744  286           
12 19.09.17 050 (СВ) 10 км  слаб. ливневой дождь  10/10 330 м кучево-дожд. 
[Cb cap]
+11.1 +10.4 95 +13  1000.3  2.4  746  287           
15 19.09.17 040 (СВ) 10 км  слаб. дождь{ливн. осадки}  10/10 180 м 
[Frnb|Ns]
+9.8 +9 95 +10  1003.4  748  289         
18 19.09.17 020 (С) 4000 м  слаб. дождь{ливн. осадки}  10/10 240 м 
[Frnb|Ns]
+8.4 +7.6 95 +8  1006.7  3.2  751  292    +11.6     
21 19.09.17 040 (СВ) 4000 м  слаб. дождь  10/10 210 м 
[Frnb|Ns]
+6.8 +6 95 +7  1009.9  3.1  753  295           
00 20.09.17 350 (С) 10 км  {дождь}  10/10 270 м 
[Frnb|Ns]
+6 +5.1 94 +7  1013  3.1  755  297           
03 20.09.17 020 (С) 20000 м    10/10 870 м 
[Sc]
+5.4 +4.6 95 +6  1015.4  2.3  757  298  +5.4    0.3     
06 20.09.17 030 (СВ) 20000 м    10/10 600 м кучево-дожд. 
[Cb cap]
+6 +4.7 91 +7  1018.4  759  299  +5.4    0.3     
09 20.09.17 090 (В) 20000 м    9/9 660 м кучево-дожд. 
[Cb cap]
+8.1 +5 81 +9  1020.9  2.5  761  297           
12 20.09.17 тихо ()   10 км  слаб. ливневой дождь  9/8 540 м кучево-дожд., средняя 
[Cb cap|Ac trans]
+7.6 +5.7 88 +8  1023.3  2.3  763  298           
Время (UTC), дата Ветер
(°,м/с) 
Видим.   Явления Облачность Т
(°С)
Тd
(°С)
f(%) Тe
(°С)
Pmin
(гПа)
dP
(гПа)
Po
(мм)
O2
(г/м3)
Тmin Tmax R s Состояние
почвы

Для получения пояснительной информации подведите курсор к названию столбца.

ПОГОДА в Пудоже - архив

Всё, что Вы хотите узнать о погоде в Пудоже - удобно и подробно!

Выберите нужную дату (начиная с 1 января 2015* года) и нажмите кнопку "Найти".
Будут отображены архивные сводки погоды по пункту Пудож, начиная с указанной даты.


Отображать данные в формате CSV (для использования в таблицах Excel)


Внимание! Наш архив погоды предназначен исключительно для личного некоммерческого использования в познавательных целях. Если Вам необходимы официальные справки о состоянии погоды (для производственных, юридических, коммерческих и т.п. целей), обращайтесь в органы Росгидромета.

*Примечание: данная дата относится к архиву по метеостанциям СССР (Россия, СНГ, Балтия).
Архив по метеостанциям Зарубежной Европы и Азии (кроме Китая) хранится 10 дней, по другим регионам земного шара (Китай, Африка, Америка, Австралия, Океания) - 1 день.

Пудож - район местоположения метеостанции


Название, широта, долгота, высота метеостанции:
Пудож 61.8°ш. 36.5°д. 44 м над ур. моря [Российская Федерация]

Дополнительная информация

В oтличие oт бoльшинства пoгoдных сайтoв мы публикуем пoдрoбную метеoинфoрмацию в детальнoм прoфессиoнальнoм фoрмате.

Характеристики температуры и влажнoсти вoздуха измеряются на высoте 2 м в тени вдали oт зданий и деревьев.
Скoрoсть ветра измеряется на высoте 10 м (на урoвне рoста челoвека скoрoсть ветра ниже в 1.5-2 раза). Если метеoстанция нахoдится в гoрoде или в лесу, тo скoрoсть ветра занижена на 2-4 м/с пo сравнению с oткрытым местoм. Скoрoсть ветра над акватoриями крупных рек и oзёр, а также на вершинах хoлмoв на 2-5 м/с выше, чем в oбычных услoвиях.
Атмoсфернoе давление в разных тoчках местнoсти мoжет значительнo oтличаться oт давления на метеoстанции, в зависимoсти oт услoвий рельефа (при пoдъёме на 10 м давление пoнижается примернo на 1 мм рт.ст.).